Regional Weather Roundup
Issued by NWS

Home | Current Version | Previous Version | Text Only | Print | Product List | Glossary Off
Versions: 1 2 3 4 5 6 7 8 9 10 11 12 13 14 15 16 17 18 19 20 21 22 23 24 25 26 27 28 29 30 31 32 33 34 35 36 37 38 39 40 41 42 43 44 45 46 47 48 49 50

000
ASUS43 KIND 272159
RWRIN

WEATHER ROUNDUP FOR INDIANA
NATIONAL WEATHER SERVICE INDIANAPOLIS IN
600 PM EDT FRI MAY 27 2016

NOTE: "FAIR" INDICATES FEW OR NO CLOUDS BELOW 12,000 FEET WITH NO
SIGNIFICANT WEATHER AND/OR OBSTRUCTIONS TO VISIBILITY.

* - STATION DOES NOT REPORT WEATHER SUCH AS PRECIPITATION OR FOG.

+ - STATION NOT QUALITY CONTROLLED BY THE NATIONAL WEATHER SERVICE.
    USE DATA WITH CAUTION...ESPECIALLY DEWPOINT AND RELATIVE
    HUMIDITY OBSERVATIONS.

INZ001>003-010>013-019-020-272300-
NORTHWEST INDIANA

CITY           SKY/WX    TMP DP  RH WIND       PRES   REMARKS
GARY /AIRPORT/ PTSUNNY   75  73  94 SE12      29.86F
RENSSELAER +   CLOUDY    79  64  61 SE10G17   29.87F
VALPARAISO     RAIN      70  68  93 W20G29    29.90R FOG

$$

LMZ046-743>745-272300-
SOUTHERN LAKE MICHIGAN

STATION/POSITION TIME  TEMP    WIND        PRES    WAVE
                       AIR SEA DIR/SP/G            HT
                 (UTC) (F)     (DEG/KT/KT) (MB)    (FT)
BURNS HARBOR     2100   73     200/ 17/ 24 1011.9R
MICHIGAN CITY    2100   83     150/ 12/ 16   N/A
5NW MICH CITY    2100   72 60  180/  8/ 10   N/A     1

$$

INZ004-005-014>016-021>024-272300-
NORTH CENTRAL INDIANA

CITY           SKY/WX    TMP DP  RH WIND       PRES   REMARKS
ELKHART        CLOUDY    84  66  54 S10       29.89F
GOSHEN         CLOUDY    84  57  39 S16       29.90F
SOUTH BEND     CLOUDY    83  62  49 S13       29.88F

$$

INZ006>009-017-018-025>027-272300-
NORTHEAST INDIANA

CITY           SKY/WX    TMP DP  RH WIND       PRES   REMARKS
ANGOLA *+        N/A     84  79  84 S7        29.92F HX  96
FORT WAYNE     CLOUDY    86  59  39 S17       29.92F

$$

INZ028-029-035-036-043>045-051>053-272300-
WEST CENTRAL INDIANA

CITY           SKY/WX    TMP DP  RH WIND       PRES   REMARKS
CRAWFORDSVL +  SUNNY     83  58  42 S21G26    29.90F
GREENCASTLE +  MOSUNNY   81  64  57 S17G24    29.92S
LAFAYETTE      MOSUNNY   83  58  42 S14G23    29.88S
TERRE HAUTE    MOSUNNY   82  65  56 S13G22    29.90F

$$

INZ030>032-037>040-046>048-054>057-064-065-272300-
CENTRAL INDIANA

CITY           SKY/WX    TMP DP  RH WIND       PRES   REMARKS
COLUMBUS       MOSUNNY   84  59  42 S16G25    29.94F
INDIANAPOLIS   MOSUNNY   84  58  40 S20       29.91F
-EAGLE CREEK   SUNNY     85  56  37 S13G23    29.91F
KOKOMO *+      CLOUDY    84  63  48 S13       29.90F
SHELBYVILLE    MOSUNNY   87  57  35 S18G29    29.93F

$$

INZ033-034-041-042-049-050-058-059-272300-
EAST CENTRAL INDIANA

CITY           SKY/WX    TMP DP  RH WIND       PRES   REMARKS
MUNCIE         MOSUNNY   87  58  37 S17       29.93F

$$

INZ060-061-067>069-081>083-085>088-272300-
SOUTHWEST INDIANA

CITY           SKY/WX    TMP DP  RH WIND       PRES   REMARKS
EVANSVILLE     SUNNY     84  60  44 S20G26    29.91F
HUNTINGBURG *+ MOSUNNY   82  63  51 S12G18    29.93S

$$

INZ062-063-066-070>080-084-089>092-272300-
SOUTH CENTRAL AND SOUTHEAST INDIANA

CITY           SKY/WX    TMP DP  RH WIND       PRES   REMARKS
BLOOMINGTON    SUNNY     84  60  44 S12       29.93F
MADISON *+     MOSUNNY   84  61  45 S9G16     29.99F
SEYMOUR +      PTSUNNY   86  63  45 S13       29.94F

$$





USA.gov is the U.S. government's official web portal to all federal, state and local government web resources and services.